Thomasville, PA

12:01 PM EST on December 10, 2016 (GMT -0500)
York

Weather History for KTHV - January, 2013

Change the Weather History Date:

Friday, January 11, 2013

  Actual Average Record
Temperature  
Mean Temperature 36 °F -  
Max Temperature 43 °F 0 °F 55 °F (2008)
Min Temperature 28 °F - 3 °F (2004)
Degree Days  
Heating Degree Days 30    
Moisture  
Dew Point 36 °F    
Average Humidity 91    
Maximum Humidity 100    
Minimum Humidity 60    
Precipitation  
Precipitation 0.00 in - - ()
Sea Level Pressure  
Sea Level Pressure 30.22 in    
Wind  
Wind Speed 1 mph (ESE)    
Max Wind Speed 6 mph    
Max Gust Speed -    
Visibility 4 miles    
Events Fog , Rain    
Averages and records for this station are not official NWS values.
T = Trace of Precipitation, MM = Missing Value Source: NWS Daily Summary

Daily Weather History Graph

Daily Weather History Graph

Search for Another Location

Airport or City:

Trip Planner

Search our weather history database for the weather conditions in past years. The results will help you decide how hot, cold, wet, or windy it might be!

Date:

Astronomy

Jan. 11, 2013 Rise Set
Actual Time 7:28 AM EST 5:02 PM EST
Civil Twilight 6:58 AM EST 5:32 PM EST
Nautical Twilight 6:25 AM EST 6:06 PM EST
Astronomical Twilight 5:52 AM EST 6:38 PM EST
Moon 6:59 AM EST (1/11) 5:18 PM EST (1/11)
Length of Visible Light 10h 34m
Length of Day
9h 34m
Waning Crescent, 0% of the Moon is Illuminated
Jan 11
Waning Crescent
Jan 11
New
Jan 18
First Quarter
Jan 26
Full
Feb 3
Last Quarter

Hourly Weather History & Observations

Time (EST) Temp. Windchill Dew Point Humidity Pressure Visibility Wind Dir Wind Speed Gust Speed Precip Events Conditions
12:53 AM 30.9 °F - 28.0 °F 89% 30.50 in 9.0 mi Calm Calm - N/A   Clear
1:53 AM 32.0 °F - 28.0 °F 85% 30.51 in 9.0 mi Calm Calm - N/A   Clear
2:53 AM 28.9 °F - 26.1 °F 89% 30.48 in 7.0 mi Calm Calm - N/A   Clear
3:53 AM 28.9 °F - 26.1 °F 89% 30.47 in 6.0 mi Calm Calm - N/A   Clear
4:53 AM 28.9 °F - 27.0 °F 92% 30.46 in 7.0 mi Calm Calm - N/A   Clear
5:53 AM 30.9 °F - 28.0 °F 89% 30.44 in 7.0 mi Calm Calm - N/A   Overcast
6:53 AM 30.9 °F 27.5 °F 27.0 °F 85% 30.42 in 8.0 mi East 3.5 mph - N/A   Clear
7:53 AM 30.9 °F - 28.0 °F 89% 30.43 in 5.0 mi Calm Calm - N/A   Mostly Cloudy
8:53 AM 34.0 °F - 30.0 °F 85% 30.42 in 6.0 mi Calm Calm - 0.00 in Rain Light Rain
9:53 AM 37.0 °F 34.5 °F 32.0 °F 82% 30.38 in 9.0 mi ESE 3.5 mph - 0.00 in   Overcast
10:53 AM 39.9 °F - 30.9 °F 70% 30.36 in 10.0 mi Calm Calm - N/A   Overcast
11:53 AM 42.1 °F 38.4 °F 28.9 °F 60% 30.32 in 10.0 mi SSE 5.8 mph - N/A   Overcast
12:53 PM 43.0 °F 39.5 °F 30.9 °F 62% 30.26 in 10.0 mi SE 5.8 mph - N/A   Overcast
1:53 PM 42.1 °F 38.4 °F 33.1 °F 70% 30.23 in 6.0 mi ESE 5.8 mph - 0.00 in Rain Rain
2:40 PM 41.0 °F - 35.6 °F 81% 30.20 in 7.0 mi Calm Calm - 0.00 in Rain Light Rain
2:53 PM 41.0 °F - 37.0 °F 86% 30.22 in 6.0 mi Calm Calm - 0.00 in Rain Light Rain
3:53 PM 41.0 °F 38.0 °F 37.9 °F 89% 30.19 in 2.0 mi ESE 4.6 mph - N/A Rain Rain
4:01 PM 41.0 °F - 37.4 °F 87% 30.16 in 3.0 mi Calm Calm - N/A Rain Light Rain
4:07 PM 39.2 °F - 37.4 °F 93% 30.17 in 2.5 mi Calm Calm - N/A Rain Rain
4:13 PM 39.2 °F - 37.4 °F 93% 30.18 in 1.5 mi Calm Calm - N/A Rain Rain
4:31 PM 39.2 °F - 37.4 °F 93% 30.16 in 1.8 mi Calm Calm - N/A Rain Light Rain
4:40 PM 39.2 °F - 37.4 °F 93% 30.16 in 2.0 mi Calm Calm - N/A Rain Light Rain
4:53 PM 39.9 °F - 39.0 °F 97% 30.18 in 2.0 mi Calm Calm - N/A Rain Rain
5:14 PM 39.2 °F - 39.2 °F 100% 30.16 in 1.5 mi Calm Calm - N/A Rain Heavy Rain
5:23 PM 39.2 °F - 37.4 °F 93% 30.16 in 1.2 mi Calm Calm - N/A Rain Heavy Rain
5:53 PM 39.0 °F 36.8 °F 39.0 °F 100% 30.17 in 1.2 mi ESE 3.5 mph - N/A   Overcast
5:56 PM 39.2 °F 37.0 °F 39.2 °F 100% 30.14 in 0.8 mi ESE 3.5 mph - N/A   Overcast
6:08 PM 39.2 °F - 39.2 °F 100% 30.14 in 1.0 mi Calm Calm - N/A   Overcast
6:16 PM 39.2 °F - 39.2 °F 100% 30.14 in 1.5 mi Calm Calm - N/A   Overcast
6:35 PM 39.2 °F 35.9 °F 37.4 °F 93% 30.13 in 1.8 mi East 4.6 mph - N/A Rain Light Rain
6:47 PM 39.2 °F 37.0 °F 39.2 °F 100% 30.13 in 1.0 mi East 3.5 mph - N/A Rain Light Rain
6:53 PM 39.9 °F 37.8 °F 39.0 °F 97% 30.15 in 1.2 mi ENE 3.5 mph - N/A Rain Light Rain
7:05 PM 39.2 °F - 39.2 °F 100% 30.14 in 2.0 mi Calm Calm - N/A Rain Light Rain
7:22 PM 39.2 °F - 39.2 °F 100% 30.13 in 1.8 mi Calm Calm - N/A   Overcast
7:34 PM 39.2 °F - 39.2 °F 100% 30.13 in 2.5 mi Calm Calm - N/A   Overcast
7:41 PM 39.2 °F 35.9 °F 37.4 °F 93% 30.11 in 2.0 mi SE 4.6 mph - N/A   Overcast
7:53 PM 39.9 °F - 39.0 °F 97% 30.13 in 1.8 mi Calm Calm - N/A   Overcast
8:05 PM 39.2 °F - 39.2 °F 100% 30.11 in 2.5 mi Calm Calm - N/A   Overcast
8:15 PM 39.2 °F - 39.2 °F 100% 30.12 in 3.0 mi Calm Calm - N/A   Overcast
8:25 PM 39.2 °F - 37.4 °F 93% 30.13 in 2.5 mi Calm Calm - N/A   Overcast
8:32 PM 39.2 °F - 37.4 °F 93% 30.12 in 2.0 mi Calm Calm - N/A   Overcast
8:49 PM 39.2 °F - 39.2 °F 100% 30.11 in 1.5 mi Calm Calm - N/A Rain Light Rain
8:53 PM 39.9 °F - 39.0 °F 97% 30.14 in 1.5 mi Calm Calm - N/A Rain Light Rain
9:16 PM 39.2 °F - 39.2 °F 100% 30.10 in 1.0 mi Calm Calm - N/A   Overcast
9:53 PM 39.9 °F - 39.0 °F 97% 30.12 in 0.8 mi Calm Calm - N/A   Mist
10:53 PM 39.0 °F - 37.9 °F 96% 30.12 in 0.2 mi Calm Calm - N/A Fog Fog
11:53 PM 39.0 °F - 37.9 °F 96% 30.11 in 0.2 mi Calm Calm - N/A Fog Fog